Simultaneous Nadir Overpasses (SNOs) Predictions

Prediction of SNOs between LANDSAT-8 and METOP-B Satellite Orbit:

Table of predicted SNOs for the next 14.0 days since TLE Epoch: 11/20/2013
Index Date (LANDSAT-8) Time (LANDSAT-8) Lat,Lon (LANDSAT-8) SZA (LANDSAT-8 ) Date (METOP-B) Time (METOP-B) Lat,Lon (METOP-B) SZA (METOP-B ) Distance(km) Time Diff (sec)
1 11/22/2013 09:05:44 81.10, 83.24 103.56 11/22/2013 09:05:28 81.09, 83.25 103.55 0.46 16
2 11/22/2013 09:55:10 -81.12,-108.79 76.39 11/22/2013 09:56:07 -81.12,-108.61 76.34 3.01 57
3 11/25/2013 03:51:21 -79.42, -34.23 78.79 11/25/2013 03:50:08 -79.84, -36.35 78.60 62.40 73
4 11/25/2013 04:39:54 81.10, 149.76 104.12 11/25/2013 04:39:52 81.10, 149.79 104.12 0.63 2
5 11/25/2013 05:29:21 -81.10, -42.60 75.88 11/25/2013 05:30:33 -81.10, -42.76 75.86 2.77 72
6
